Airfield :
LOGIN :

Register | Disclaimer

   EN    FR    IT 

 










Legend :    VFR   Marginal VFR   IFR   Intensive IFR   Very Intensive IFR
Visi :
Ceiling :
>= 8 km
>= 3000ft
5 to 8 km
1000 to 3000 ft
1500m to 5 km
500 to 1000 ft
800 to 1500m
200 to 500 ft
< 800m
< 200 ft
Symbols :   Thunderstorms  Fog  Heavy snow  Heavy precipitations  Wind > 20 kt
SIGMETs :     Misc.  Thunderstorms  Icing  Turbulence  Mountain Waves  Volcanic Ashes






- Airport Elevation : 827 ft
- IATA code : EBM


DTTR - El Borma

CURRENT METAR :
  • 070400Z AUTO 11005KT NCD 24/01 Q1011

EXPIRED METARs :
  • 070300Z AUTO 12004KT NCD 25/00 Q1011
  • 070200Z AUTO 08006KT NCD 26/01 Q1011
  • 070100Z AUTO 11003KT NCD 26/01 Q1012

TAF TAF DTTR
Valid from the 07 at 04:00 until the 07 at 13:00 UTC


070300Z 0704/0713 12004KT CAVOK



MET'MAP, your aeronautical weather chart ! - Copyright ORBIFLY December 2007 - Disclaimer

ORBIFLY MET'MAP TEAM :

Programming & Development : Alexandra Zaïnal
Concept & original design : Baudouin d'Aumeries
Assistance for programming : Marc-Olivier Méhu
Technical & hardware support : Manuel Goepfert

Contact : metmap@orbifly.com




SOURCES & CREDITS :

   NOAA